Location: Lesignano de� Bagni
(44.6500°N, 10.3000°E)
Time: 15:06:06
(UTC+00:00)

APEX - Pass Details

Date: 03 March 2021
Orbit: 332 x 1081 km, 69.9° (Epoch: 11 April)

Event Time Altitude Azimuth Distance (km) Brightness Sun altitude
Rises 17:46:55 0° 329° (NNW) 2,207 6.8 -7.5°
Reaches altitude 10° 17:48:59 10° 324° (NW) 1,309 5.8 -7.8°
Maximum altitude 17:51:43 51° 246° (WSW) 428 3.3 -8.3°
Drops below altitude 10° 17:54:21 10° 169° (SSE) 1,268 5.1 -8.8°
Sets 17:56:19 0° 164° (SSE) 2,125 6.2 -9.1°
